{"data":{"norad_id":61972,"intl_designator":"2024-210P","name":"STARLINK-32612","alt_names":[],"object_type":"PAYLOAD","status":"ACTIVE","operator":null,"country":"US","launch_date":"2024-11-14","launch_site_code":"AFETR","launch_vehicle":null,"mission":null,"orbit_class":"UNKNOWN","rcs_meters":null,"size_class":null,"mass_kg":null,"dimensions":null,"purposes":["comms"],"wikipedia_slug":null,"has_3d_model":false,"image_url":null,"decayed_at":null,"tle_current":{"epoch":"2026-05-25T04:06:50.490144Z","epoch_age_seconds":54083,"freshness":"FRESH","line1":"1 61972U 24210P   26145.17141771  .00016549  00000+0  60932-3 0  9998","line2":"2 61972  43.0001 108.1682 0001206 273.3565  86.7149 15.27591487 86571","mean_motion":15.27591487,"eccentricity":0.0001206,"inclination_deg":43.0001,"raan_deg":108.1682,"arg_perigee_deg":273.3565,"mean_anomaly_deg":86.7149,"bstar":0.00060932,"rev_number":8657,"period_min":94.266039857814,"perigee_km":482.18724514974,"apogee_km":483.84215493979,"semimajor_km":6861.1517000448,"source":"CELESTRAK","updated_at":"2026-05-25T13:38:19.514722Z"}}}